Hourly Data Report for October 10, 2020

SAINT JOHN A
NEW BRUNSWICK
Current Station Operator: NAVCAN

45°18'58.000" N
65°53'24.000" W
108.80 m
8104901
71609
YSJ

Download Data

Hourly Data (October 2020)
Hourly Data Report for October 10, 2020
TIME
LST
Temp Definition
°C
Dew Point Definition
°C
Rel Hum Definition
%
Precip. Amount Definition
mm

Wind Dir Definition
10's deg

Wind Spd Definition
km/h
Visibility Definition
km
Stn Press Definition
kPa
Hmdx Definition


Wind Chill Definition


Weather Definition


00:00 0.5 -0.4 94 LegendMM 36 2 24.1 100.28     LegendNANA
01:00 4.7 1.9 82 LegendMM 21 9 24.1 100.27     LegendNANA
02:00 8.3 3.3 70 LegendMM 22 10 24.1 100.26     Cloudy
03:00 9.2 4.3 71 LegendMM 23 8 24.1 100.24     LegendNANA
04:00 10.2 6.7 79 LegendMM 21 14 24.1 100.15     LegendNANA
05:00 10.5 8.2 85 LegendMM 21 22 24.1 100.06     Cloudy
06:00 10.8 9.3 90 LegendMM 21 30 24.1 99.94     LegendNANA
07:00 11.4 9.9 90 LegendMM 20 39 24.1 99.90     LegendNANA
08:00 12.0 10.1 88 LegendMM 21 45 24.1 99.83     Cloudy
09:00 12.6 11.1 90 LegendMM 21 37 24.1 99.72     LegendNANA
10:00 13.7 11.9 89 LegendMM 21 47 24.1 99.64     LegendNANA
11:00 14.9 12.0 83 LegendMM 22 45 24.1 99.57     Cloudy
12:00 15.6 11.8 78 LegendMM 21 50 24.1 99.50     LegendNANA
13:00 15.8 11.9 78 LegendMM 21 48 24.1 99.39     LegendNANA
14:00 15.0 11.9 81 LegendMM 21 40 24.1 99.39     Cloudy
15:00 14.6 12.0 84 LegendMM 22 34 24.1 99.30     LegendNANA
16:00 14.3 12.5 89 LegendMM 21 40 24.1 99.26     LegendNANA
17:00 14.0 12.8 92 LegendMM 22 36 16.1 99.24     Drizzle
18:00 13.8 13.0 95 LegendMM 21 39 9.7 99.19     Drizzle, Fog
19:00 13.7 13.0 95 LegendMM 21 40 8.1 99.16     Drizzle, Fog
20:00 13.8 13.1 95 LegendMM 21 38 9.7 99.16     Drizzle, Fog
21:00 13.5 12.8 96 LegendMM 20 41 8.1 99.02     Fog
22:00 13.6 12.8 95 LegendMM 21 41 9.7 99.02     Fog
23:00 13.6 13.4 99 LegendMM 22 26 3.2 99.04     Thunderstorms,Moderate Rain Showers, Fog

Notes on Data Quality.

Legend

  • E = Estimated
  • M = Missing
  • NA = Not Available*
  • [empty] = Indicates an unobserved value
Date modified: